Location: *
(58.4167°N, 22.5000°E)
Time: 09:09:33
(UTC+00:00)

Cosmos 1626 - Pass Details

Date: 22 September 2019
Orbit: 493 x 495 km, 82.5° (Epoch: 20 October)

Event Time Altitude Azimuth Distance (km) Brightness Sun altitude
Rises 19:22:27 0° 343° (NNW) 2,595 6.7 -21.5°
Reaches altitude 10° 19:24:37 10° 338° (NNW) 1,707 5.7 -21.7°
Maximum altitude 19:28:12 46° 264° (W) 674 3.0 -22.1°
Enters shadow 19:28:58 40° 227° (SW) 752 3.0 -22.2°
